[[{"header":{"parameterUnit":"m.s-1","parameterCategory":1,"la1":30.2991,"la2":30.254,"lo1":-89.0895,"lo2":-89.0444,"dy":0.0017,"dx":0.0017,"nx":28,"ny":28,"refTime":"2024-05-28T21:00:00:Z","depth":0,"parameterNumber":2,"parameterNumberName":"U-component_of_WINDS"},"data":[0,0,0,0,0,0,0,0,0,0,0,0,0,0,0,0,0,0,0,0,0,0,0,0,0,0,0,0,0,0,0,0,0,0,0,0,0,0,0,0,0,0,0,0,0,0,0,0,0,0,0,0,0,0,0,0,0,0,-0.3688,-0.3688,0,-0.3688,-0.3688,-0.3688,-0.3693,-0.3694,-0.3694,-0.3694,-0.3694,-0.3694,-0.3694,0,0,0,0,0,0,0,0,0,0,0,0,0,-0.3692,-0.3692,-0.3688,-0.3688,-0.3688,-0.3688,-0.3688,-0.3688,-0.3693,-0.3694,-0.3694,-0.3694,-0.3694,-0.3694,-0.3694,0,0,0,0,0,0,0,0,0,0,0,0,0,-0.3691,-0.3692,-0.3688,-0.3691,-0.3691,-0.3688,-0.3688,-0.3688,-0.3693,-0.3694,-0.3694,-0.3694,-0.3694,-0.3694,-0.3694,-0.3688,0,0,-0.3693,-0.3693,0,0,0,0,0,0,0,0,-0.3691,-0.3691,-0.369,-0.369,-0.3691,-0.3691,-0.369,-0.3688,-0.3693,-0.3692,-0.3694,-0.3694,-0.3693,-0.3693,-0.3692,-0.3688,-0.3688,-0.3693,-0.3693,-0.3693,-0.3693,0,0,0,0,0,0,0,-0.3691,-0.3691,-0.3688,-0.369,-0.369,-0.3692,-0.3692,-0.3689,-0.3691,-0.3692,-0.3693,-0.3693,-0.3693,-0.3692,-0.3692,-0.3688,-0.3693,-0.3693,-0.3693,-0.3693,-0.368,-0.368,0,0,0,0,0,0,-0.3691,-0.3691,-0.3688,-0.3688,-0.3691,-0.3691,-0.3692,-0.3691,-0.3691,-0.3692,-0.3693,-0.3693,-0.3693,-0.3693,-0.3692,-0.3686,-0.3693,-0.3693,-0.3693,-0.368,-0.368,-0.368,0,0,0,0,0,0,-0.3691,-0.369,-0.3688,-0.3689,-0.3689,-0.3691,-0.369,-0.3691,-0.369,-0.3692,-0.3692,-0.3692,-0.3693,-0.3693,-0.3689,-0.3686,-0.3693,-0.3693,-0.3681,-0.368,-0.368,-0.3674,0,0,0,0,0,0,-0.3691,-0.369,-0.3688,-0.3689,-0.3689,-0.3685,-0.369,-0.369,-0.369,-0.369,-0.3691,-0.3691,-0.3693,-0.369,-0.3689,-0.3686,-0.3692,-0.3681,-0.3681,-0.368,-0.3675,-0.3674,-0.3673,0,0,0,0,0,-0.3691,-0.3687,-0.3688,-0.3688,-0.3687,-0.3685,-0.3685,-0.3687,-0.3689,-0.3688,-0.3689,-0.3691,-0.3687,-0.3689,-0.3689,-0.3686,-0.3681,-0.3681,-0.368,-0.3675,-0.3674,-0.3673,0,0,0,0,0,0,-0.3686,-0.3687,-0.3689,-0.3685,-0.3685,-0.3686,-0.3683,-0.3686,-0.3685,-0.3685,-0.3688,-0.3688,-0.3684,-0.3685,-0.3687,-0.3681,-0.3684,-0.3684,-0.3681,-0.368,-0.3679,-0.3679,-0.3692,0,0,0,0,0,-0.3684,-0.3682,-0.3683,-0.368,-0.368,-0.3682,-0.3681,-0.3682,-0.3682,-0.3682,-0.3683,-0.3683,-0.3681,-0.368,-0.3679,-0.3675,-0.3675,-0.3672,-0.3671,-0.3671,-0.367,-0.3668,-0.3667,-0.3678,-0.3678,-0.3678,0,0,-0.3681,-0.3681,-0.368,-0.3679,-0.3679,-0.3677,-0.3681,-0.3679,-0.3678,-0.3682,-0.3679,-0.368,-0.3679,-0.3675,-0.3674,-0.3676,-0.3667,-0.367,-0.3669,-0.3669,-0.3667,-0.3666,-0.3665,-0.3678,-0.3678,-0.3678,0,0,-0.3674,-0.3674,-0.3671,-0.3671,-0.3671,-0.3672,-0.3671,-0.3672,-0.3672,-0.3669,-0.3672,-0.3671,-0.3668,-0.3668,-0.3668,-0.366,-0.3663,-0.3659,-0.3655,-0.3653,-0.3652,-0.3651,-0.3649,-0.3648,-0.3659,-0.3659,-0.3659,0,-0.3669,-0.3667,-0.3669,-0.3667,-0.3666,-0.3669,-0.3667,-0.3666,-0.3666,-0.3665,-0.3667,-0.3664,-0.3664,-0.3661,-0.3659,-0.3658,-0.3657,-0.366,-0.3652,-0.3651,-0.365,-0.3648,-0.3647,-0.3659,-0.3659,-0.3659,-0.3659,0,-0.3662,-0.366,-0.3657,-0.3657,-0.3656,-0.3654,-0.3655,-0.3654,-0.3656,-0.3656,-0.3653,-0.3654,-0.3652,-0.3652,-0.3653,-0.3648,-0.3649,-0.3651,-0.3655,-0.3649,-0.3647,-0.3646,-0.3658,-0.3658,-0.3658,-0.3658,0,0,-0.3652,-0.3652,-0.3652,-0.3651,-0.3652,-0.365,-0.3647,-0.3646,-0.3645,-0.3645,-0.3643,-0.364,-0.3642,-0.3642,-0.3643,-0.3641,-0.3635,-0.3644,-0.3644,-0.3643,-0.363,-0.3628,-0.3627,-0.3637,-0.3637,-0.3637,-0.363,0,-0.3645,-0.3641,-0.3643,-0.3638,-0.3637,-0.364,-0.3637,-0.3637,-0.3638,-0.3636,-0.3637,-0.3635,-0.3638,-0.3638,-0.3636,-0.3637,-0.3633,-0.3637,-0.3635,-0.3635,-0.3635,-0.3626,-0.3625,-0.3618,-0.3629,-0.3629,-0.3629,0,-0.3637,-0.3637,-0.3632,-0.3632,-0.3632,-0.363,-0.3629,-0.3627,-0.3627,-0.3627,-0.3627,-0.3629,-0.3626,-0.3629,-0.3626,-0.3628,-0.3628,-0.3628,-0.3628,-0.3628,-0.3632,-0.3626,-0.3616,-0.3615,-0.3627,-0.3628,-0.3628,0,-0.3631,-0.3629,-0.3626,-0.3625,-0.3626,-0.3624,-0.3624,-0.3624,-0.3623,-0.3622,-0.3622,-0.362,-0.362,-0.3619,-0.362,-0.3622,-0.3616,-0.362,-0.3617,-0.3617,-0.3616,-0.3616,-0.3606,-0.3614,-0.3614,-0.3614,-0.3614,0,-0.3624,-0.3621,-0.3623,-0.3621,-0.3618,-0.362,-0.3616,-0.3617,-0.3616,-0.3615,-0.3617,-0.3615,-0.3617,-0.3615,-0.3616,-0.3613,-0.3613,-0.3613,-0.3614,-0.3613,-0.3613,-0.3613,-0.3614,-0.3614,-0.3614,-0.3614,-0.3614,0,-0.3616,-0.3617,-0.3614,-0.3615,-0.3615,-0.3612,-0.3613,-0.3611,-0.3612,-0.3609,-0.3609,-0.361,-0.3608,-0.3609,-0.3607,-0.3608,-0.3604,-0.3605,-0.3604,-0.3604,-0.3602,-0.3602,-0.3591,-0.359,-0.3599,-0.3599,-0.3599,0,-0.3612,-0.361,-0.361,-0.3609,-0.3609,-0.3607,-0.3606,-0.3608,-0.3607,-0.3606,-0.3604,-0.3603,-0.3601,-0.3598,-0.3599,-0.3597,-0.3598,-0.3595,-0.3598,-0.3598,-0.3599,-0.3599,-0.3599,-0.3594,-0.3594,-0.3594,-0.3594,0,-0.3604,-0.3605,-0.3603,-0.3602,-0.3601,-0.36,-0.3599,-0.3598,-0.36,-0.3599,-0.3597,-0.3596,-0.3594,-0.3592,-0.3591,-0.3591,-0.3593,-0.3593,-0.3592,-0.3592,-0.3592,-0.3592,-0.3603,-0.3593,-0.3593,-0.3593,-0.3593,-0.3593,-0.3598,-0.3596,-0.3596,-0.3595,-0.3594,-0.3593,-0.3592,-0.3592,-0.3591,-0.3589,-0.359,-0.3588,-0.3587,-0.3586,-0.3585,-0.3584,-0.3585,-0.3584,-0.3584,-0.3584,-0.3583,-0.3592,-0.3583,-0.3583,-0.3584,-0.3584,-0.3584,0,-0.3591,-0.3591,-0.3589,-0.3588,-0.3587,-0.3588,-0.3587,-0.3586,-0.3584,-0.3584,-0.3582,-0.358,-0.3579,-0.3579,-0.3577,-0.3576,-0.3577,-0.3575,-0.3576,-0.3576,-0.3582,-0.3583,-0.3575,-0.3575,-0.3575,-0.3575,-0.3575,-0.3575,-0.3587,-0.3584,-0.3584,-0.3581,-0.3581,-0.3579,-0.3578,-0.3578,-0.3577,-0.3575,-0.3573,-0.3573,-0.3573,-0.3571,-0.357,-0.357,-0.3569,-0.3568,-0.3568,-0.3574,-0.3575,-0.3576,-0.3577,-0.3568,-0.3568,-0.3562,-0.3562,-0.3562]},{"header":{"parameterUnit":"m.s-1","parameterCategory":1,"la1":30.2991,"la2":30.254,"lo1":-89.0895,"lo2":-89.0444,"dy":0.0017,"dx":0.0017,"nx":28,"ny":28,"refTime":"2024-05-28T21:00:00:Z","depth":0,"parameterNumber":3,"parameterNumberName":"V-component_of_WINDS"},"data":[0,0,0,0,0,0,0,0,0,0,0,0,0,0,0,0,0,0,0,0,0,0,0,0,0,0,0,0,0,0,0,0,0,0,0,0,0,0,0,0,0,0,0,0,0,0,0,0,0,0,0,0,0,0,0,0,0,0,-0.2242,-0.2243,0,-0.2321,-0.2322,-0.2322,-0.2376,-0.2376,-0.2376,-0.2377,-0.2458,-0.246,-0.2462,0,0,0,0,0,0,0,0,0,0,0,0,0,-0.2139,-0.2141,-0.2242,-0.2243,-0.2244,-0.232,-0.2322,-0.2323,-0.2376,-0.2376,-0.2376,-0.2377,-0.2458,-0.246,-0.2462,0,0,0,0,0,0,0,0,0,0,0,0,0,-0.2197,-0.2141,-0.2242,-0.2279,-0.2284,-0.232,-0.2322,-0.2323,-0.2375,-0.2376,-0.2377,-0.2377,-0.2457,-0.246,-0.2462,-0.2468,0,0,-0.2471,-0.2472,0,0,0,0,0,0,0,0,-0.2194,-0.2201,-0.2273,-0.2277,-0.2282,-0.2339,-0.2315,-0.2372,-0.2375,-0.2341,-0.2377,-0.2377,-0.2418,-0.2424,-0.2438,-0.2472,-0.2475,-0.2471,-0.2473,-0.2474,-0.2474,0,0,0,0,0,0,0,-0.219,-0.2198,-0.2273,-0.2274,-0.2279,-0.2293,-0.2302,-0.2326,-0.2375,-0.2344,-0.2348,-0.2356,-0.2421,-0.2435,-0.244,-0.2476,-0.2471,-0.2473,-0.2475,-0.2476,-0.252,-0.2519,0,0,0,0,0,0,-0.218,-0.2194,-0.2271,-0.2276,-0.2238,-0.2294,-0.2304,-0.232,-0.2375,-0.2384,-0.2356,-0.2358,-0.243,-0.2437,-0.2443,-0.2454,-0.2474,-0.2476,-0.2478,-0.252,-0.252,-0.2519,0,0,0,0,0,0,-0.2177,-0.2186,-0.2267,-0.2236,-0.2247,-0.2296,-0.2313,-0.2321,-0.2336,-0.2384,-0.2393,-0.2361,-0.2431,-0.2439,-0.2461,-0.2457,-0.2477,-0.248,-0.2521,-0.252,-0.2519,-0.2474,0,0,0,0,0,0,-0.2174,-0.2185,-0.2187,-0.2236,-0.2249,-0.2284,-0.2312,-0.2322,-0.234,-0.2344,-0.2392,-0.24,-0.2432,-0.2457,-0.2464,-0.2461,-0.2482,-0.2521,-0.252,-0.2519,-0.2476,-0.2472,-0.2468,0,0,0,0,0,-0.217,-0.2171,-0.2187,-0.2196,-0.2253,-0.2284,-0.2291,-0.2327,-0.2339,-0.2342,-0.2374,-0.2399,-0.2456,-0.2459,-0.2467,-0.2465,-0.2522,-0.2521,-0.252,-0.2478,-0.2473,-0.2468,0,0,0,0,0,0,-0.2121,-0.2178,-0.2196,-0.2213,-0.2243,-0.2292,-0.2297,-0.232,-0.2348,-0.2351,-0.2395,-0.2405,-0.2423,-0.2446,-0.2448,-0.2474,-0.2492,-0.2493,-0.2458,-0.2453,-0.2449,-0.2443,-0.2484,0,0,0,0,0,-0.2112,-0.2132,-0.2181,-0.2192,-0.2206,-0.2249,-0.2263,-0.2289,-0.2322,-0.2335,-0.2368,-0.2399,-0.2424,-0.244,-0.2466,-0.248,-0.2491,-0.2483,-0.2479,-0.2475,-0.2475,-0.2485,-0.2481,-0.2515,-0.2515,-0.2515,0,0,-0.2094,-0.2128,-0.2138,-0.2183,-0.2209,-0.2229,-0.2259,-0.2279,-0.2294,-0.2338,-0.2361,-0.2386,-0.2424,-0.2442,-0.2452,-0.2462,-0.2468,-0.2474,-0.2471,-0.2473,-0.2483,-0.248,-0.2477,-0.2515,-0.2515,-0.2515,0,0,-0.2072,-0.2099,-0.2111,-0.2136,-0.2175,-0.2204,-0.2207,-0.2253,-0.2271,-0.2295,-0.2328,-0.2347,-0.239,-0.2415,-0.2434,-0.2421,-0.2445,-0.2429,-0.2408,-0.2417,-0.2414,-0.2412,-0.2407,-0.2405,-0.2428,-0.2428,-0.2428,0,-0.2045,-0.2076,-0.2114,-0.2132,-0.2151,-0.2191,-0.2203,-0.2226,-0.2272,-0.2284,-0.2295,-0.2349,-0.2378,-0.2402,-0.2399,-0.2413,-0.2418,-0.2423,-0.2411,-0.2409,-0.2408,-0.2404,-0.2402,-0.2426,-0.2426,-0.2427,-0.2427,0,-0.204,-0.2062,-0.2066,-0.2109,-0.2129,-0.2143,-0.2184,-0.2199,-0.2223,-0.225,-0.2274,-0.231,-0.2343,-0.2351,-0.2374,-0.2379,-0.2385,-0.2403,-0.2422,-0.2402,-0.2399,-0.2398,-0.2423,-0.2424,-0.2424,-0.2425,0,0,-0.1989,-0.2053,-0.2054,-0.2074,-0.212,-0.2138,-0.2155,-0.2187,-0.22,-0.223,-0.2245,-0.2281,-0.2298,-0.2319,-0.2345,-0.2353,-0.2341,-0.237,-0.2372,-0.2364,-0.2348,-0.2334,-0.2332,-0.2357,-0.2357,-0.2357,-0.2345,0,-0.1974,-0.2006,-0.2041,-0.2061,-0.2081,-0.212,-0.2135,-0.2165,-0.2191,-0.2212,-0.2242,-0.2266,-0.2287,-0.23,-0.2309,-0.234,-0.2338,-0.2341,-0.2372,-0.2373,-0.2361,-0.2331,-0.2316,-0.2304,-0.2344,-0.2344,-0.2344,0,-0.196,-0.1988,-0.201,-0.2055,-0.2064,-0.2077,-0.211,-0.213,-0.2165,-0.2184,-0.2207,-0.2235,-0.2256,-0.2273,-0.2301,-0.2303,-0.2317,-0.2335,-0.2335,-0.2339,-0.2357,-0.2334,-0.2301,-0.2299,-0.2343,-0.2343,-0.2343,0,-0.192,-0.1964,-0.1983,-0.1999,-0.2051,-0.2059,-0.2081,-0.2117,-0.2135,-0.2164,-0.2176,-0.2207,-0.2224,-0.2247,-0.2283,-0.2292,-0.2308,-0.2328,-0.2324,-0.2323,-0.2326,-0.2325,-0.2294,-0.2335,-0.2335,-0.2335,-0.2335,0,-0.1899,-0.1911,-0.1966,-0.1977,-0.1992,-0.2032,-0.2046,-0.2072,-0.2103,-0.2121,-0.2156,-0.2172,-0.2218,-0.224,-0.2268,-0.2288,-0.2295,-0.2311,-0.2318,-0.2308,-0.2306,-0.2318,-0.232,-0.2335,-0.2335,-0.2335,-0.2335,0,-0.1858,-0.1894,-0.1918,-0.1965,-0.1978,-0.1986,-0.2028,-0.2041,-0.2069,-0.2091,-0.2098,-0.2143,-0.217,-0.2208,-0.2247,-0.2266,-0.2281,-0.2293,-0.2269,-0.2274,-0.2268,-0.2268,-0.2244,-0.2242,-0.2284,-0.2283,-0.2283,0,-0.1842,-0.1852,-0.1901,-0.1915,-0.1936,-0.1958,-0.1976,-0.2017,-0.2034,-0.2075,-0.2083,-0.2113,-0.2139,-0.218,-0.2216,-0.2246,-0.2259,-0.2248,-0.2264,-0.2253,-0.2259,-0.2258,-0.2259,-0.2245,-0.2244,-0.2243,-0.2243,0,-0.181,-0.1828,-0.1852,-0.1883,-0.1904,-0.193,-0.1958,-0.1968,-0.2014,-0.2032,-0.206,-0.208,-0.2119,-0.2149,-0.2183,-0.2207,-0.2233,-0.2238,-0.2239,-0.2228,-0.2214,-0.2221,-0.2259,-0.2238,-0.2239,-0.2239,-0.2239,-0.224,-0.1781,-0.1792,-0.1828,-0.1854,-0.1879,-0.1905,-0.1919,-0.1949,-0.1973,-0.2009,-0.2031,-0.2058,-0.2093,-0.2142,-0.2165,-0.2186,-0.2197,-0.2198,-0.2198,-0.2198,-0.2194,-0.221,-0.2193,-0.2193,-0.2193,-0.2194,-0.2194,0,-0.1751,-0.1776,-0.18,-0.1838,-0.1859,-0.1881,-0.1913,-0.1929,-0.1952,-0.1983,-0.2007,-0.204,-0.2068,-0.2106,-0.2138,-0.2148,-0.216,-0.2155,-0.2154,-0.2159,-0.2183,-0.2179,-0.2144,-0.2144,-0.2144,-0.2144,-0.2144,-0.2144,-0.1738,-0.1757,-0.1779,-0.1812,-0.1837,-0.1864,-0.188,-0.1904,-0.1929,-0.1963,-0.1987,-0.2011,-0.2045,-0.2079,-0.2106,-0.2117,-0.2127,-0.2117,-0.2132,-0.2153,-0.2158,-0.2162,-0.2159,-0.2119,-0.2119,-0.2106,-0.2106,-0.2106]}]]